Location: Larkspur
(54.4391°N, 113.7691°W)
Time: 07:47:16
(UTC+00:00)

CZ-4C DEB - Visible Passes

Search period start: 21 May 2024 00:00
Search period end: 31 May 2024 00:00
Orbit: 608 x 615 km, 97.8° (Epoch: 20 May)

Date Brightness Start Highest point End Pass type
(mag) Time Alt. Az. Time Alt. Az. Time Alt. Az.
21 May ? 05:58:55 14° SSW 06:02:25 42° W 06:06:33 10° NNW visible
22 May ? 04:37:07 10° SE 04:41:06 38° ENE 04:45:06 10° N visible
22 May ? 06:13:38 12° SSW 06:17:06 32° W 06:21:00 10° NNW visible
23 May ? 04:51:27 10° SE 04:55:36 50° ENE 04:59:47 10° N visible
23 May ? 06:28:19 10° SSW 06:31:48 24° W 06:35:21 10° NW visible
24 May ? 05:06:00 11° SSE 05:10:07 67° ENE 05:14:25 10° N visible
24 May ? 06:43:29 10° SW 06:46:30 19° W 06:49:33 10° NW visible
25 May ? 05:20:38 12° SSE 05:24:37 89° E 05:28:58 10° NNW visible
25 May ? 06:58:56 10° WSW 07:01:13 14° W 07:03:30 10° NW visible
26 May ? 05:35:14 12° S 05:39:09 69° WSW 05:43:28 10° NNW visible
26 May ? 07:15:13 10° W 07:15:55 10° W 07:16:38 10° WNW visible
27 May ? 05:49:50 12° S 05:53:40 51° W 05:57:53 10° NNW visible
28 May ? 06:04:24 11° SSW 06:08:11 38° W 06:12:14 10° NNW visible
29 May ? 04:42:36 10° SE 04:46:39 42° ENE 04:50:43 10° N visible
29 May ? 06:18:59 10° SSW 06:22:43 29° W 06:26:29 10° NNW visible
30 May ? 04:56:48 10° SSE 05:01:00 56° ENE 05:05:12 10° N visible
30 May ? 06:33:54 10° SW 06:37:15 22° W 06:40:37 10° NW visible
